Greenville, AL

1:15 AM CDT on May 21, 2018 (GMT -0500)
Greenville Municipal

Weather History for KPRN - October, 2011

Change the Weather History Date:

Thursday, October 20, 2011

  Actual Average Record
Temperature  
Mean Temperature 50 °F -  
Max Temperature 62 °F 77 °F 93 °F (2016)
Min Temperature 39 °F 50 °F 30 °F (1989)
Degree Days  
Heating Degree Days 14    
Moisture  
Dew Point 37 °F    
Average Humidity 66    
Maximum Humidity 89    
Minimum Humidity 36    
Precipitation  
Precipitation 0.00 in - - ()
Sea Level Pressure  
Sea Level Pressure 30.02 in    
Wind  
Wind Speed 7 mph (West)    
Max Wind Speed 15 mph    
Max Gust Speed 22 mph    
Visibility 10 miles    
Events Hail    
Averages and records for this station are not official NWS values.
T = Trace of Precipitation, MM = Missing Value Source: NWS Daily Summary

Daily Weather History Graph

Daily Weather History Graph

Search for Another Location

Airport or City:

Astronomy

Oct. 20, 2011 Rise Set
Actual Time 6:53 AM CDT 6:08 PM CDT
Civil Twilight 6:28 AM CDT 6:33 PM CDT
Nautical Twilight 6:00 AM CDT 7:01 PM CDT
Astronomical Twilight 5:31 AM CDT 7:30 PM CDT
Moon 12:03 AM CDT (10/20) 1:54 PM CDT (10/20)
Length of Visible Light 12h 05m
Length of Day
11h 15m
Last Quarter, 44% of the Moon is Illuminated
Oct 20
Last Quarter
Oct 26
New
Nov 2
First Quarter
Nov 10
Full
Nov 18
Last Quarter

Hourly Weather History & Observations

Time (CDT) Temp. Windchill Dew Point Humidity Pressure Visibility Wind Dir Wind Speed Gust Speed Precip Events Conditions
12:56 AM 46.0 °F 42.5 °F 37.9 °F 73% 29.94 in 10.0 mi West 6.9 mph - N/A   Clear
1:56 AM 45.0 °F 40.1 °F 37.9 °F 76% 29.94 in 10.0 mi WSW 9.2 mph - N/A   Clear
2:56 AM 44.1 °F 39.5 °F 37.0 °F 76% 29.94 in 10.0 mi West 8.1 mph - N/A   Clear
3:56 AM 42.1 °F 37.7 °F 37.0 °F 82% 29.96 in 10.0 mi WSW 6.9 mph - N/A   Clear
4:56 AM 41.0 °F 35.8 °F 37.0 °F 86% 29.97 in 10.0 mi West 8.1 mph - N/A   Clear
5:56 AM 39.9 °F 34.5 °F 37.0 °F 89% 29.98 in 10.0 mi West 8.1 mph - N/A   Clear
6:56 AM 39.9 °F 35.8 °F 36.0 °F 86% 30.01 in 10.0 mi WSW 5.8 mph - N/A   Clear
7:56 AM 42.1 °F 36.6 °F 37.0 °F 82% 30.03 in 10.0 mi West 9.2 mph - N/A   Clear
8:56 AM 46.9 °F - 37.9 °F 71% 30.06 in 10.0 mi West 8.1 mph - N/A   Clear
9:56 AM 52.0 °F - 37.0 °F 57% 30.06 in 10.0 mi WNW 10.4 mph - N/A   Clear
10:56 AM 55.9 °F - 36.0 °F 47% 30.06 in 10.0 mi West 10.4 mph - N/A   Clear
11:56 AM 55.9 °F - 34.0 °F 44% 30.05 in 10.0 mi WNW 12.7 mph 17.3 mph N/A   Clear
12:56 PM 60.1 °F - 35.1 °F 39% 30.02 in 10.0 mi West 15.0 mph 21.9 mph N/A   Clear
1:56 PM 61.0 °F - 34.0 °F 36% 30.00 in 10.0 mi NW 6.9 mph - N/A   Clear
2:56 PM 61.0 °F - 34.0 °F 36% 29.99 in 10.0 mi Variable 5.8 mph - N/A   Clear
3:56 PM 62.1 °F - 35.1 °F 37% 30.00 in 10.0 mi WNW 8.1 mph 16.1 mph N/A   Clear
4:56 PM 61.0 °F - 36.0 °F 39% 30.01 in 10.0 mi Variable 5.8 mph - N/A   Clear
5:56 PM 57.9 °F - 36.0 °F 44% 30.03 in 10.0 mi WNW 5.8 mph - N/A   Clear
6:56 PM 50.0 °F - 41.0 °F 71% 30.05 in 10.0 mi Calm Calm - N/A   Clear
7:56 PM 48.0 °F - 41.0 °F 77% 30.06 in 10.0 mi Calm Calm - N/A   Clear
8:56 PM 45.0 °F - 41.0 °F 86% 30.08 in 10.0 mi Calm Calm - N/A   Clear
9:56 PM 44.1 °F - 39.0 °F 82% 30.10 in 10.0 mi Calm Calm - N/A   Clear
10:00 PM - - - N/A% - - North - - N/A Hail Hail
10:56 PM 42.1 °F - 37.9 °F 85% 30.11 in 10.0 mi Calm Calm - N/A   Clear
11:56 PM 41.0 °F - 37.0 °F 86% 30.11 in 10.0 mi Calm Calm - N/A   Clear